VIPR70 YSCB-YMES

Flight info

Callsign VIPR70
Flight time 0h 41m
Altitude 20000
Route CB W290 COM/N0300F200 W290 ESL
Aircraft PC21/L-SDFGTUVY/C

Departure

Time 2026-05-04 09:37
Airport Canberra Airport (YSCB)

Arrival

Time 2026-05-04 10:19
Airport RAAF Base East Sale (YMES)
Time Latitude Longitude Altitude Speed Heading
2026-05-04 09:17 -35.30381 149.19961 1875 ft 0 kts 124°
2026-05-04 09:26 -35.30389 149.19975 1875 ft 14 kts 128°
2026-05-04 09:26 -35.30454 149.19942 1875 ft 9 kts 255°
2026-05-04 09:26 -35.30392 149.19848 1875 ft 16 kts 334°
2026-05-04 09:27 -35.30325 149.19743 1875 ft 9 kts 304°
2026-05-04 09:27 -35.30270 149.19649 1875 ft 18 kts 303°
2026-05-04 09:27 -35.30229 149.19560 1875 ft 0 kts 297°
2026-05-04 09:29 -35.30218 149.19526 1875 ft 24 kts 291°
2026-05-04 09:29 -35.30177 149.19385 1875 ft 22 kts 291°
2026-05-04 09:30 -35.30157 149.19281 1875 ft 3 kts 250°
2026-05-04 09:30 -35.30249 149.19238 1875 ft 19 kts 180°
2026-05-04 09:30 -35.30379 149.19239 1875 ft 26 kts 181°
2026-05-04 09:30 -35.30551 149.19239 1875 ft 6 kts 178°
2026-05-04 09:31 -35.30600 149.19242 1875 ft 9 kts 186°
2026-05-04 09:31 -35.30710 149.19238 1875 ft 23 kts 181°
2026-05-04 09:31 -35.30902 149.19239 1875 ft 29 kts 179°
2026-05-04 09:31 -35.31096 149.19239 1875 ft 27 kts 182°
2026-05-04 09:32 -35.31281 149.19240 1875 ft 26 kts 178°
2026-05-04 09:32 -35.31414 149.19255 1875 ft 7 kts 155°
2026-05-04 09:34 -35.31466 149.19324 1875 ft 0 kts 110°
2026-05-04 09:35 -35.31467 149.19328 1875 ft 7 kts 105°
2026-05-04 09:37 -35.26650 149.16797 6118 ft 193 kts 263°
2026-05-04 09:37 -35.27450 149.15333 6939 ft 230 kts 224°
2026-05-04 09:38 -35.28994 149.14643 8069 ft 249 kts 194°
2026-05-04 09:38 -35.30793 149.14789 8999 ft 266 kts 178°
2026-05-04 09:38 -35.32609 149.15080 10150 ft 262 kts 180°
2026-05-04 09:38 -35.34426 149.15340 11147 ft 264 kts 179°
2026-05-04 09:39 -35.36256 149.15753 12127 ft 273 kts 167°
2026-05-04 09:39 -35.38021 149.16728 12989 ft 281 kts 154°
2026-05-04 09:39 -35.39780 149.17678 14073 ft 264 kts 180°
2026-05-04 09:39 -35.41462 149.17394 15166 ft 247 kts 200°
2026-05-04 09:40 -35.43171 149.17006 16010 ft 250 kts 201°
2026-05-04 09:40 -35.44895 149.16511 16748 ft 259 kts 204°
2026-05-04 09:40 -35.46637 149.15863 17492 ft 265 kts 208°
2026-05-04 09:40 -35.48477 149.15323 18274 ft 280 kts 195°
2026-05-04 09:41 -35.50511 149.15036 18581 ft 307 kts 193°
2026-05-04 09:42 -35.67657 149.12634 20047 ft 380 kts 194°
2026-05-04 09:43 -35.70281 149.12164 20052 ft 383 kts 194°
2026-05-04 09:43 -35.72926 149.11688 20053 ft 384 kts 195°
2026-05-04 09:43 -35.75574 149.11207 20065 ft 385 kts 195°
2026-05-04 09:43 -35.78222 149.10690 20052 ft 385 kts 195°
2026-05-04 09:44 -35.80872 149.10160 20055 ft 386 kts 195°
2026-05-04 09:44 -35.83525 149.09619 20057 ft 386 kts 196°
2026-05-04 09:44 -35.86158 149.09009 20061 ft 385 kts 198°
2026-05-04 09:46 -36.04131 149.02945 20050 ft 384 kts 201°
2026-05-04 09:46 -36.06746 149.02188 20056 ft 386 kts 199°
2026-05-04 09:46 -36.09388 149.01552 20054 ft 388 kts 197°
2026-05-04 09:47 -36.12050 149.00979 20062 ft 389 kts 195°
2026-05-04 09:47 -36.14723 149.00477 20066 ft 390 kts 194°
2026-05-04 09:49 -36.33521 148.97088 20047 ft 383 kts 206°
2026-05-04 09:49 -36.35866 148.95657 20054 ft 373 kts 218°
2026-05-04 09:49 -36.38013 148.93903 20052 ft 366 kts 225°
2026-05-04 09:51 -36.50248 148.82574 20044 ft 367 kts 225°
2026-05-04 09:51 -36.52301 148.80697 20041 ft 367 kts 225°
2026-05-04 09:51 -36.54355 148.78822 20045 ft 367 kts 225°
2026-05-04 09:51 -36.56409 148.76948 20049 ft 367 kts 225°
2026-05-04 09:52 -36.58468 148.75067 20047 ft 367 kts 225°
2026-05-04 09:52 -36.60421 148.73073 20050 ft 362 kts 230°
2026-05-04 09:52 -36.62271 148.70968 20043 ft 360 kts 232°
2026-05-04 09:52 -36.64095 148.68821 20049 ft 360 kts 232°
2026-05-04 09:53 -36.65924 148.66701 20037 ft 361 kts 230°
2026-05-04 09:53 -36.67814 148.64630 20038 ft 362 kts 230°
2026-05-04 09:53 -36.69719 148.62586 20036 ft 362 kts 229°
2026-05-04 09:53 -36.71636 148.60548 20025 ft 362 kts 229°
2026-05-04 09:54 -36.73531 148.58543 20046 ft 362 kts 229°
2026-05-04 09:54 -36.75448 148.56511 20053 ft 363 kts 229°
2026-05-04 09:54 -36.77375 148.54470 20053 ft 363 kts 229°
2026-05-04 09:54 -36.79299 148.52429 20042 ft 363 kts 229°
2026-05-04 09:55 -36.81225 148.50383 20039 ft 363 kts 229°
2026-05-04 09:55 -36.83145 148.48343 20037 ft 363 kts 229°
2026-05-04 09:55 -36.85069 148.46299 20037 ft 363 kts 229°
2026-05-04 09:55 -36.86646 148.44622 20043 ft 363 kts 229°
2026-05-04 09:56 -36.88281 148.42882 20040 ft 363 kts 229°
2026-05-04 09:56 -36.90206 148.40838 20030 ft 363 kts 229°
2026-05-04 09:56 -36.92129 148.38795 20018 ft 363 kts 229°
2026-05-04 09:56 -36.94049 148.36755 20018 ft 362 kts 229°
2026-05-04 09:57 -36.95969 148.34719 20008 ft 362 kts 229°
2026-05-04 09:57 -36.97887 148.32683 20008 ft 361 kts 229°
2026-05-04 09:57 -36.99803 148.30651 20021 ft 361 kts 229°
2026-05-04 09:57 -37.01715 148.28621 20002 ft 360 kts 229°
2026-05-04 09:58 -37.03625 148.26592 20010 ft 360 kts 229°
2026-05-04 09:58 -37.05539 148.24572 20007 ft 361 kts 227°
2026-05-04 09:58 -37.07499 148.22608 20007 ft 361 kts 226°
2026-05-04 10:00 -37.21343 148.08993 20022 ft 362 kts 227°
2026-05-04 10:00 -37.23295 148.06986 20006 ft 362 kts 226°
2026-05-04 10:02 -37.36576 147.92607 19990 ft 360 kts 229°
2026-05-04 10:04 -37.50439 147.79125 19971 ft 380 kts 200°
2026-05-04 10:04 -37.53026 147.78358 19727 ft 388 kts 197°
2026-05-04 10:04 -37.55709 147.77630 19206 ft 399 kts 196°
2026-05-04 10:04 -37.58403 147.76915 18699 ft 403 kts 195°
2026-05-04 10:05 -37.61174 147.76333 18178 ft 404 kts 192°
2026-05-04 10:05 -37.63935 147.75864 17603 ft 393 kts 191°
2026-05-04 10:05 -37.66544 147.75459 17010 ft 358 kts 191°
2026-05-04 10:05 -37.68930 147.74840 16437 ft 346 kts 198°
2026-05-04 10:06 -37.71239 147.74047 15867 ft 342 kts 200°
2026-05-04 10:06 -37.73508 147.73209 15308 ft 338 kts 200°
2026-05-04 10:06 -37.75743 147.72355 14769 ft 333 kts 201°
2026-05-04 10:08 -37.88473 147.67351 11419 ft 308 kts 201°
2026-05-04 10:08 -37.90512 147.66573 10877 ft 305 kts 201°
2026-05-04 10:08 -37.92541 147.65808 10337 ft 302 kts 201°
2026-05-04 10:08 -37.94549 147.65060 9634 ft 299 kts 201°
2026-05-04 10:09 -37.96530 147.64333 8972 ft 295 kts 201°
2026-05-04 10:09 -37.98503 147.63617 8322 ft 294 kts 201°
2026-05-04 10:09 -38.00440 147.62922 7697 ft 292 kts 201°
2026-05-04 10:09 -38.02390 147.62230 7079 ft 290 kts 201°
2026-05-04 10:10 -38.04322 147.61554 6468 ft 288 kts 201°
2026-05-04 10:10 -38.06248 147.60883 5832 ft 286 kts 201°
2026-05-04 10:10 -38.08162 147.60217 5204 ft 284 kts 201°
2026-05-04 10:10 -38.10070 147.59548 4575 ft 284 kts 201°
2026-05-04 10:11 -38.11956 147.58875 3940 ft 280 kts 200°
2026-05-04 10:11 -38.13821 147.58175 3316 ft 279 kts 200°
2026-05-04 10:11 -38.15552 147.57265 3415 ft 249 kts 232°
2026-05-04 10:11 -38.15247 147.55969 3226 ft 215 kts 339°
2026-05-04 10:12 -38.13861 147.55582 3305 ft 192 kts 330°
2026-05-04 10:12 -38.13034 147.54363 3214 ft 191 kts 295°
2026-05-04 10:12 -38.12814 147.52511 3145 ft 238 kts 261°
2026-05-04 10:12 -38.13365 147.50671 2988 ft 256 kts 252°
2026-05-04 10:13 -38.13951 147.48555 3097 ft 244 kts 267°
2026-05-04 10:13 -38.13841 147.46486 3055 ft 228 kts 280°
2026-05-04 10:13 -38.13635 147.44583 3159 ft 212 kts 282°
2026-05-04 10:13 -38.13407 147.42646 2950 ft 234 kts 282°
2026-05-04 10:14 -38.13132 147.40536 2765 ft 252 kts 282°
2026-05-04 10:14 -38.12843 147.38254 2791 ft 278 kts 283°
2026-05-04 10:16 -38.10912 147.23233 1164 ft 202 kts 281°
2026-05-04 10:16 -38.10658 147.21702 862 ft 201 kts 284°
2026-05-04 10:16 -38.10441 147.19937 685 ft 199 kts 278°
2026-05-04 10:16 -38.10253 147.18228 516 ft 194 kts 281°
2026-05-04 10:17 -38.10056 147.16691 285 ft 169 kts 280°
2026-05-04 10:17 -38.09881 147.15338 44 ft 134 kts 280°
2026-05-04 10:19 -38.09759 147.13482 27 ft 14 kts 191°
2026-05-04 10:19 -38.09861 147.13486 26 ft 13 kts 109°
2026-05-04 10:19 -38.09882 147.13668 28 ft 21 kts 98°
2026-05-04 10:19 -38.09894 147.13758 26 ft 4 kts 141°
2026-05-04 10:20 -38.09918 147.13760 26 ft 0 kts 187°